DW7262 La Rochelle FR current weather conditions

sailwx.info

Wind from 301 at 5 knots gusting 13

Air temperature 19.4° C
Dewpoint 14.3° C

Last reported at 2014-Aug-23 10:07 UTC.
Time now 2014-Aug-23 13:29 UTC

Location: N 45°57' W 001°22'.
View on Google Maps.

See reports from other nearby stations

  
Tides and Currents Weather Stations Pressure Air Temp Water Temp Dewpoint Dewpoint Depression Visibility Wind Speed Wind Dir Waves Ship Positions
date/time (UTC)wind fromknots sea level pressurealtimeterstation pressurevisibilityair tempwater tempwave heightnotes
2014-Aug-23 10:07 301 5 gusting 13 19.4
2014-Aug-23 09:56 301 5 gusting 13 18.9
2014-Aug-23 09:46 277 5 gusting 13 18.9
2014-Aug-23 09:36 303 6 gusting 13 18.9
2014-Aug-23 09:26 303 5 gusting 9 18.9
2014-Aug-23 08:40 316 3 gusting 10 18.3
2014-Aug-23 08:29 226 4 gusting 10 18.3
2014-Aug-23 08:19 303 4 gusting 8 18.3
2014-Aug-23 07:57 294 3 gusting 10 18.3
2014-Aug-23 07:47 333 4 gusting 10 17.8
2014-Aug-23 06:49 290 3 gusting 6 17.8
2014-Aug-23 06:39 285 4 gusting 7 18.3
2014-Aug-23 06:29 284 3 gusting 9 17.8
2014-Aug-23 06:19 271 3 gusting 9 17.8
2014-Aug-23 05:44 287 2 gusting 7 17.2
2014-Aug-23 05:23 277 2 gusting 7 17.2
2014-Aug-22 19:29 262 3 gusting 7 18.3
2014-Aug-22 19:18 283 3 gusting 7 18.3
2014-Aug-22 18:57 245 3 gusting 7 18.3
2014-Aug-22 18:47 252 4 gusting 8 18.3
2014-Aug-22 18:36 256 5 gusting 8 18.3
2014-Aug-22 18:27 271 4 gusting 8 18.3
2014-Aug-22 18:17 263 3 gusting 6 18.9
2014-Aug-22 18:08 298 3 gusting 8 18.9
2014-Aug-22 17:46 273 4 gusting 8 18.9
2014-Aug-22 17:24 243 5 gusting 9 18.9
2014-Aug-22 17:14 274 4 gusting 9 18.9
2014-Aug-22 17:04 278 4 gusting 8 19.4
2014-Aug-22 16:42 280 3 gusting 6 19.4
2014-Aug-22 16:19 273 2 gusting 6 18.9
2014-Aug-22 15:57 250 3 gusting 8 19.4
2014-Aug-22 15:47 285 4 gusting 9 19.4
2014-Aug-22 15:37 248 4 gusting 9 20.0
2014-Aug-22 15:02 278 5 gusting 10 20.0
2014-Aug-22 14:52 314 4 gusting 10 20.0
2014-Aug-22 14:30 218 5 gusting 9 20.0
2014-Aug-22 14:08 269 3 gusting 9 20.6
2014-Aug-22 13:57 276 4 gusting 8 20.0
2014-Aug-22 13:47 256 5 gusting 10 20.0
2014-Aug-22 13:25 281 5 gusting 10 20.0
2014-Aug-22 13:15 256 5 gusting 10 20.0
2014-Aug-22 13:05 276 5 gusting 9 20.0
2014-Aug-22 12:55 280 4 gusting 9 20.0
2014-Aug-22 12:10 256 4 gusting 10 19.4
2014-Aug-22 11:37 261 4 gusting 7 19.4
2014-Aug-22 11:27 273 2 gusting 6 20.0
2014-Aug-22 11:18 266 1 gusting 6 20.0
2014-Aug-22 11:08 226 2 gusting 6 20.0
2014-Aug-22 10:58 184 1 gusting 5 20.0
2014-Aug-22 10:36 208 1 gusting 5 20.0
2014-Aug-22 10:27 200 1 gusting 6 19.4
2014-Aug-22 10:17 226 2 gusting 6 18.9
2014-Aug-22 10:07 228 2 gusting 6 18.9
2014-Aug-22 09:45 195 1 gusting 6 18.9
2014-Aug-22 09:35 195 2 gusting 6 18.9
2014-Aug-22 09:24 231 1 gusting 5 18.9
2014-Aug-22 09:15 156 1 gusting 4 18.9
2014-Aug-22 09:04 208 1 gusting 3 18.9
2014-Aug-22 08:54 153 1 gusting 5 18.9
2014-Aug-22 08:19 136 18.3
2014-Aug-22 08:09 135 0 gusting 3 18.3
2014-Aug-22 08:00 128 0 gusting 3 17.8
2014-Aug-22 07:26 090 0 gusting 3 17.2
2014-Aug-22 07:16 086 1 gusting 3 16.7
2014-Aug-22 07:06 100 1 gusting 3 16.1
2014-Aug-22 06:56 107 1 gusting 3 16.1
2014-Aug-22 06:46 117 1 gusting 2 16.1
2014-Aug-21 15:47 283 3 gusting 6 20.0
2014-Aug-21 15:26 279 4 gusting 6 19.4
2014-Aug-21 15:16 252 3 gusting 7 20.0
2014-Aug-21 14:54 281 3 gusting 6 20.0
2014-Aug-21 14:44 274 3 gusting 6 19.4
2014-Aug-21 14:34 257 3 gusting 7 20.0
2014-Aug-21 14:13 283 3 gusting 6 19.4
2014-Aug-21 14:02 248 2 gusting 6 20.0
2014-Aug-21 13:40 247 3 gusting 6 19.4
2014-Aug-21 13:30 242 3 gusting 6 19.4
2014-Aug-21 13:20 266 3 gusting 6 19.4
2014-Aug-21 13:10 256 3 gusting 6 19.4